This is the latest recevied weather packets stored in our database for station/object EA1IDU-11. If no packets are shown the sender has not sent any weather packets the latest 10 day(s).
| Time | Temp. | Humidity | Pressure | Rain* | Wind** | Luminosity | Snow |
|---|---|---|---|---|---|---|---|
| 1788138026 | 63° F | 55% | 772.2 mmHg | - | - | - | - |
| 1788137125 | 63° F | 54% | 772.3 mmHg | - | - | - | - |
| 1788136224 | 63° F | 54% | 772.3 mmHg | - | - | - | - |
| 1788135323 | 63° F | 55% | 772.2 mmHg | - | - | - | - |
| 1788134423 | 63° F | 55% | 772.2 mmHg | - | - | - | - |
| 1788133522 | 64° F | 56% | 772.1 mmHg | - | - | - | - |
| 1788132622 | 64° F | 54% | 772.2 mmHg | - | - | - | - |
| 1788131721 | 64° F | 54% | 772.2 mmHg | - | - | - | - |
| 1788130821 | 64° F | 54% | 772.2 mmHg | - | - | - | - |
| 1788129920 | 65° F | 55% | 772.2 mmHg | - | - | - | - |
| 1788129020 | 65° F | 54% | 772.1 mmHg | - | - | - | - |
| 1788128119 | 66° F | 52% | 772.1 mmHg | - | - | - | - |
| 1788127218 | 66° F | 53% | 772 mmHg | - | - | - | - |
| 1788126318 | 66° F | 49% | 771.9 mmHg | - | - | - | - |
| 1788125417 | 66° F | 47% | 771.8 mmHg | - | - | - | - |
| 1788124516 | 66° F | 48% | 771.7 mmHg | - | - | - | - |
| 1788123615 | 67° F | 46% | 771.6 mmHg | - | - | - | - |
| 1788122714 | 68° F | 45% | 771.6 mmHg | - | - | - | - |
| 1788121814 | 69° F | 42% | 771.4 mmHg | - | - | - | - |
| 1788120913 | 70° F | 40% | 771.4 mmHg | - | - | - | - |
| 1788120012 | 72° F | 37% | 771.2 mmHg | - | - | - | - |
| 1788119110 | 74° F | 34% | 771.1 mmHg | - | - | - | - |
| 1788118209 | 76° F | 31% | 770.8 mmHg | - | - | - | - |
| 1788117308 | 78° F | 22% | 770.5 mmHg | - | - | - | - |
| 1788116408 | 80° F | 21% | 770.2 mmHg | - | - | - | - |
* Rain since midnight (hover to see other rain measurements)
** Current wind speed in m/s (hover to see current wind gust speed)